Вернуться в каталог

NOAA 16 DEB

АктивенSSO
NORAD 41376·DEBRIS·🇺🇸 United States

Запущен Sep 21, 2000 с Vandenberg Space Force Base

Loading…

Ближайшие Пролёты (ближайшие 24 часа)

TLE

СвежийSource: Space-Track

Эпоха: Sep 14, 2026, 12:54 UTC

1 41376U 00055JV  26257.53783484  .00002725  00000-0  98539-3 0  9998
2 41376  98.7344 357.1509 0015156  22.9403 337.2455 14.34275326552329

Отслеживайте NOAA 16 DEB в реальном времени с AllMySat

Download on the App Store